Showing default

COSMOS 1561, 15000

Orbit data source: Space-Track

COSMOS 1561, 15000 is a payload satellite owned by GUKOS (CIS) in LEO that was launched on Mon, 28 May 1984 UTC via a KOSMOS 11K65M launch vehicle from the Plesetsk Missile And Space Complex (PKMTR). Payload-class satellites include a variety of spacecraft equipped with specific instruments for various scientific and technological missions. These include communications satellites like Starlink; space stations such as the ISS; scientific satellites like the Hubble; Earth observation satellites from companies like Planet Labs, Umbra, and HawkEye 360; GPS; miniature CubeSats for education and research; and military/defense satellites.

Loading next visibility...
Identifier
15000, 1984-052C
Orbit
LEO
Country
Flag of CISCIS
Related business
Manufacturer
NPO PM
Mission
Spacecraft
Bus & Motor
STRELA-1 11F625, Unknown motor
Mass
60 kg wet, 60 kg dry
Launch date (UTC)
1984-05-28 (42 years ago)
Launch vehicle
KOSMOS 11K65M
Launch site
Plesetsk Missile And Space Complex (PKMTR)
Object type
Payload
Rocket body
Debris
Shape & HBR
Unknown
Radar Cross Section
Medium (>0.1 m² and <1 m²)

Expand to show TLE details & history
Last TLE update: 4 hours ago

TLE from 4 hours ago
0 COSMOS 1561
1 15000U 84052C   26127.20566057 -.00000006  00000-0  67520-4 0  9995
2 15000  74.0110  85.2517 0015495 312.4629 154.7791 12.47990758910624
Epoch: 2026-05-07T04:56Z
TLE epoch observation values (Epoch: 2026-05-07T04:56:09.073Z)
Latitude
66.68515°
Longitude
-75.26368°
Altitude
1,495.091 km
Speed
7.118 km/s
True Right ascension
14h 55m 19s
True Declination
66° 34' 18"
Sunlit
Object was in daylight at epoch
Visualization orbit readout
Latitude
Unknown
Longitude
Unknown
Altitude
Unknown
Speed
Unknown
Apparent Right ascension
Unknown
Apparent Declination
Unknown
Sunlit
N/A
Visualization observer readout
Local Sidereal Time
16:58:30
Azimuth
Unknown
Elevation
Unknown
Doppler factor
Unknown
Orbital elements
Apogee altitude
1,482.911 km
Perigee altitude
1,458.587 km
Semi-major axis
7,848.886 km
Eccentricity
0.00155
Inclination
74.011°
RAAN
85.2517°
Arg. of periapsis
312.4629°
True anomaly
154.85463°
Mean anomaly
154.7791°
Eccentric anomaly
154.81688°
Mean motion
3.12127 °/min
Orbital period
115.34 mins
BSTAR
0.00006752
Loading maneuver chart data...
Computing Atmospheric mass density...
Loading historical data...
Loading historical data...
Loading historical data...
Loading historical data...
Loading historical data...
Loading historical data...
Loading historical data...

Documentation

Showing up to 5 results
|